Location: Alexander
(41.3564°N, 81.5960°W)
Time: 09:04:02
(UTC+00:00)

Meteor 2-10 Rocket - Pass Details

Date: 24 January 2021
Orbit: 733 x 885 km, 81.2° (Epoch: 02 March)

Event Time Altitude Azimuth Distance (km) Brightness Sun altitude
Rises 23:34:51 0° 345° (NNW) 3,364 6.8 -11.7°
Reaches altitude 10° 23:37:20 10° 341° (NNW) 2,404 6.1 -12.2°
Maximum altitude 23:42:36 55° 266° (W) 944 4.4 -13.1°
Drops below altitude 10° 23:47:37 10° 189° (S) 2,293 6.3 -14.0°
Sets 23:49:57 0° 185° (S) 3,195 6.9 -14.5°
